SL-19 DEB, 23493

Orbit data source: Space-Track

SL-19 DEB, 23493 is space debris in LEO originally from a launch on Mon, 26 Dec 1994 UTC launched from the Tyuratam Missile And Space Complex (TTMTR). Debris objects in space refer to the collection of defunct objects orbiting the Earth. Examples of debris include non-operational satellites, rocket bodies, and fragments generated from explosions, collisions, or faulty payload assembly.

Loading next visibility...
Identifier
23493, 1994-085R
Orbit
LEO
Country
Flag of CISCIS
Related business
Manufacturer
Unknown
Mission
Spacecraft
Bus & Motor
Unknown
Mass
Unknown
Launch date (UTC)
1994-12-26 (31 years ago)
Launch vehicle
Unknown
Launch site
Tyuratam Missile And Space Complex (TTMTR)
Object type
Payload
Rocket body
Debris
Shape & HBR
Unknown shape, 0.1 m
Radar Cross Section
Small (<0.1 m²)

Expand to show TLE details & history
Last TLE update: 3 days ago

TLE from 3 days ago
0 SL-19 DEB
1 23493U 94085R   25307.26006439 -.00000054  00000-0 -30958-3 0  9993
2 23493  64.9392 242.8791 0154025 223.4452 290.5132 11.31923969274883
Epoch: 2025-11-03T06:14Z
TLE epoch observation values (Epoch: 2025-11-03T06:14:29.563Z)
Latitude
24.94802°
Longitude
-86.01262°
Altitude
1,959.22 km
Speed
6.936 km/s
True Right ascension
03h 21m 29s
True Declination
24° 50' 08"
Sunlit
Object was in full shadow at epoch
Visualization orbit readout
Latitude
Unknown
Longitude
Unknown
Altitude
Unknown
Speed
Unknown
Apparent Right ascension
Unknown
Apparent Declination
Unknown
Sunlit
N/A
Visualization observer readout
Local Sidereal Time
05:41:36
Azimuth
Unknown
Elevation
Unknown
Doppler factor
Unknown
Orbital elements
Apogee altitude
2,128.657 km
Perigee altitude
1,870.58 km
Semi-major axis
8,377.756 km
Eccentricity
0.0154
Inclination
64.9392°
RAAN
242.8791°
Arg. of periapsis
223.4452°
True anomaly
288.84913°
Mean anomaly
290.5132°
Eccentric anomaly
289.68226°
Mean motion
2.83042 °/min
Orbital period
127.19 mins
BSTAR
-0.00030958
Loading maneuver chart data...
Computing Atmospheric mass density...
Loading historical data...
Loading historical data...
Loading historical data...
Loading historical data...
Loading historical data...
Loading historical data...
Loading historical data...

Documentation

Showing up to 5 results
|